SCP
0 0 0 0 0 0 0 0 0 0 0 0 0 0 0 0 0 0 0 0 0 0 0 0 0 0 0 0 0 0 0 0
0 0 0 0 0 0 0 0 0 0 0 0 0 0 0 0 0 0 0 0 0 0 0 0 0 0 0 0 0 0 0 0
0 0 0 0 0 0 0 0 0 0 0 0 0 0 0 0 0 0 0 0 0 0 0 0 0 0 0 0 0 0 0 0
-0 -0 0 0 0 0 0 0 0 0 0 0 0 0 0 0 0 0 0 0 0 0 0 0 0 0 0 0 0 0 0 0
-0 0 0 0 0 0 0 0 0 0 0 0 0 0 0 0 0 0 0 0 0 0 0 0 0 0 0 0 0 0 0 0
0 0 0 0 0 0 0 0 0 0 0 0 0 0 0 0 0 0 0 0 0 0 0 0 0 0 0 0 0 0 0 0
0 0 -0 0 0 0 0 0 0 0 0 0 0 0 0 0 0 0 0 0 0 0 0 0 0 0 0 0 0 0 0 0
-0 -0 -0 0 0 0 0 0 0 0 0 0 0 0 0 0 0 0 0 0 0 0 0 0 0 0 0 0 0 0 0 0
-0 -0 0 0 0 0 0 0 0 0 0 0 0 0 0 0 0 0 0 0 0 0 0 0 0 0 0 0 0 0 0 0
-0 0 0 0 0 0 0 0 0 0 0 0 0 0 0 0 0 0 0 0 0 0 0 0 0 0 0 0 0 0 0 0
0 0 0 0 0 0 0 0 0 0 0 0 0 0 0 0 0 0 0 0 0 0 0 0 0 0 0 0 0 0 0 0
0 0 0 0 0 0 0 0 0 0 0 0 0 0 0 0 0 0 0 0 0 0 0 0 0 0 0 0 0 0 0 0
0 0 0 0 0 0 0 0 0 0 0 0 0 0 0 0 0 0 0 0 0 0 0 0 0 0 0 0 0 0 0 0
0 0 0 0 0 0 0 0 0 0 0 0 0 0 0 0 0 0 0 0 0 0 0 0 0 0 0 0 0 0 0 0
0 0 0 0 0 0 0 0 0 0 0 0 0 0 0 0 0 0 0 0 0 0 0 0 0 0 0 0 0 0 0 0
0 0 0 0 0 0 0 0 0 0 0 0 0 0 0 0 0 0 0 0 0 0 0 0 0 0 0 0 0 0 0 0
0 0 0 0 0 0 0 0 0 0 0 0 0 0 0 0 0 0 0 0 0 0 0 0 0 0 0 0 0 0 0 0
0 0 0 0 0 0 0 0 0 0 0 0 0 0 0 0 0 0 0 0 0 0 0 0 0 0 0 0 0 0 0 0
0 0 0 0 0 0 0 0 0 0 0 0 0 0 0 0 0 0 0 0 0 0 0 0 0 0 0 0 0 0 0 0
Wind_Speed_500mb
26 27 30 33 35 34 29 21 9 16 20 15 9 2 3 8 8 6 9 14 19 21 26 32 28 18 20 22 29 29 31 32
25 29 30 35 37 33 24 16 12 9 12 11 9 4 11 16 10 13 18 22 25 25 18 21 23 24 29 32 32 36 39 37
27 29 33 36 35 31 27 21 16 18 15 11 7 8 10 10 15 23 27 30 29 25 30 28 28 33 34 32 33 36 36 31
32 33 35 36 36 32 27 27 25 20 18 11 9 5 7 6 11 11 23 31 31 34 34 37 38 36 36 32 28 25 26 28
38 40 38 37 34 32 33 32 26 26 23 16 12 3 3 15 15 16 22 32 42 45 40 47 47 39 36 28 24 23 19 31
38 38 40 38 42 39 37 37 34 28 20 9 4 2 8 12 16 26 29 33 36 39 41 41 41 38 32 23 19 16 22 29
39 39 38 36 33 42 39 35 29 22 13 8 5 15 19 20 27 29 32 36 37 38 38 40 37 32 25 18 14 19 25 30
44 41 39 35 35 37 33 28 23 17 6 6 16 22 22 20 29 29 38 36 37 39 41 35 29 25 18 16 16 36 21 23
42 42 38 37 38 34 31 25 17 8 2 11 16 16 21 22 32 39 31 34 36 39 35 23 17 15 13 22 25 26 23 22
45 40 38 38 38 36 31 24 13 7 5 16 12 18 29 36 38 38 36 36 36 34 28 14 13 14 26 24 28 24 21 24
43 38 37 37 38 37 29 17 12 8 15 8 11 20 29 38 43 41 41 40 35 30 23 18 20 23 28 34 26 22 22 26
45 39 38 39 39 37 25 18 7 6 6 7 12 22 34 40 37 38 39 40 31 27 22 25 28 35 38 32 23 25 26 30
45 44 44 42 43 36 24 14 10 14 8 9 17 30 36 31 30 35 37 36 32 26 24 29 35 40 32 20 24 29 33 37
46 46 47 45 42 33 18 19 17 10 8 13 23 29 29 24 29 34 33 33 29 26 27 29 27 25 22 23 28 29 32 34
48 48 47 44 40 28 25 19 12 12 15 19 20 29 27 28 31 32 34 32 28 25 25 27 25 23 22 24 25 26 28 35
53 53 49 45 41 33 22 20 16 16 18 19 20 29 28 26 29 33 37 32 26 27 23 21 21 22 29 33 39 28 34 35
52 50 48 46 44 32 28 22 18 18 22 25 28 30 32 29 31 34 33 30 27 28 31 25 22 21 38 37 27 35 32 36
53 53 48 45 43 33 29 25 22 22 24 31 37 35 32 31 31 32 33 29 28 30 32 26 25 19 32 32 37 37 39 33
49 44 41 42 39 32 28 27 26 25 30 36 35 28 30 32 32 33 33 30 29 27 27 24 19 25 32 36 37 44 35 29
Wind_Direction_500mb
183 176 176 175 176 175 197 210 240 237 281 295 292 174 236 310 315 274 281 284 288 293 302 306 300 311 313 310 313 309 311 301
172 178 169 164 169 183 190 211 196 244 151 130 142 175 284 301 280 291 303 303 304 305 318 319 318 313 304 309 307 306 306 299
161 163 163 166 163 166 172 176 175 158 145 143 170 232 249 265 297 301 301 303 308 317 310 311 308 306 305 298 305 308 304 306
158 156 156 157 159 161 160 157 154 154 166 171 190 221 277 305 315 317 303 301 306 311 309 307 307 308 304 294 295 306 301 305
146 150 156 156 158 156 155 153 164 173 169 178 187 185 287 297 310 314 309 309 308 306 305 303 304 303 296 291 293 301 304 308
154 151 152 153 156 157 162 169 179 184 191 202 235 350 21 353 338 325 320 316 312 308 305 299 297 297 286 278 280 290 306 312
153 154 156 156 159 170 172 175 181 191 209 218 315 335 334 338 331 329 321 316 312 308 302 298 291 284 273 266 270 301 303 306
165 169 169 169 169 174 172 175 182 168 173 354 342 337 334 343 337 336 333 327 323 318 312 302 286 269 247 257 275 309 297 293
176 176 180 177 177 172 173 167 160 151 85 358 350 349 352 355 346 343 336 329 326 323 319 305 264 248 245 285 308 302 290 290
182 186 184 178 171 172 164 153 155 129 51 334 336 353 358 355 351 341 334 332 329 325 323 301 247 261 298 303 303 291 286 298
189 184 177 172 166 170 165 157 147 323 316 301 348 360 355 345 337 337 336 332 331 327 311 280 266 302 300 299 290 285 292 301
190 183 176 170 171 171 167 171 228 301 237 312 340 345 338 332 337 337 334 332 325 318 301 276 279 293 294 286 278 284 287 301
190 184 177 175 177 176 178 180 189 232 259 308 330 325 324 326 333 334 331 327 319 308 296 288 289 293 289 272 277 288 289 298
187 185 181 179 180 179 189 185 217 226 279 307 308 314 317 320 328 328 325 321 314 307 301 294 295 287 279 277 287 291 287 296
190 188 185 185 186 188 188 218 208 253 283 296 298 309 308 314 321 323 322 317 311 309 301 296 296 289 279 282 291 296 294 303
195 191 190 192 191 191 201 198 235 256 284 294 287 305 304 302 311 318 321 315 307 299 302 302 293 289 290 295 301 295 303 306
199 197 198 198 197 197 195 220 236 266 288 296 300 297 296 298 306 314 317 309 302 299 292 288 293 281 303 302 295 309 307 311
204 204 204 202 199 207 209 218 245 271 286 300 303 298 293 295 299 307 313 309 303 300 292 284 285 274 310 296 309 312 313 310
210 209 209 210 201 211 206 219 252 271 289 296 298 290 288 295 295 298 307 305 302 298 297 284 265 270 293 299 309 316 315 314
Wind_Speed_850mb
26 27 30 33 35 34 29 21 9 16 20 15 9 2 3 8 8 6 9 14 19 21 26 32 28 18 20 22 29 29 31 32
25 29 30 35 37 33 24 16 12 9 12 11 9 4 11 16 10 13 18 22 25 25 18 21 23 24 29 32 32 36 39 37
27 29 33 36 35 31 27 21 16 18 15 11 7 8 10 10 15 23 27 30 29 25 30 28 28 33 34 32 33 36 36 31
32 33 35 36 36 32 27 27 25 20 18 11 9 5 7 6 11 11 23 31 31 34 34 37 38 36 36 32 28 25 26 28
38 40 38 37 34 32 33 32 26 26 23 16 12 3 3 15 15 16 22 32 42 45 40 47 47 39 36 28 24 23 19 31
38 38 40 38 42 39 37 37 34 28 20 9 4 2 8 12 16 26 29 33 36 39 41 41 41 38 32 23 19 16 22 29
39 39 38 36 33 42 39 35 29 22 13 8 5 15 19 20 27 29 32 36 37 38 38 40 37 32 25 18 14 19 25 30
44 41 39 35 35 37 33 28 23 17 6 6 16 22 22 20 29 29 38 36 37 39 41 35 29 25 18 16 16 36 21 23
42 42 38 37 38 34 31 25 17 8 2 11 16 16 21 22 32 39 31 34 36 39 35 23 17 15 13 22 25 26 23 22
45 40 38 38 38 36 31 24 13 7 5 16 12 18 29 36 38 38 36 36 36 34 28 14 13 14 26 24 28 24 21 24
43 38 37 37 38 37 29 17 12 8 15 8 11 20 29 38 43 41 41 40 35 30 23 18 20 23 28 34 26 22 22 26
45 39 38 39 39 37 25 18 7 6 6 7 12 22 34 40 37 38 39 40 31 27 22 25 28 35 38 32 23 25 26 30
45 44 44 42 43 36 24 14 10 14 8 9 17 30 36 31 30 35 37 36 32 26 24 29 35 40 32 20 24 29 33 37
46 46 47 45 42 33 18 19 17 10 8 13 23 29 29 24 29 34 33 33 29 26 27 29 27 25 22 23 28 29 32 34
48 48 47 44 40 28 25 19 12 12 15 19 20 29 27 28 31 32 34 32 28 25 25 27 25 23 22 24 25 26 28 35
53 53 49 45 41 33 22 20 16 16 18 19 20 29 28 26 29 33 37 32 26 27 23 21 21 22 29 33 39 28 34 35
52 50 48 46 44 32 28 22 18 18 22 25 28 30 32 29 31 34 33 30 27 28 31 25 22 21 38 37 27 35 32 36
53 53 48 45 43 33 29 25 22 22 24 31 37 35 32 31 31 32 33 29 28 30 32 26 25 19 32 32 37 37 39 33
49 44 41 42 39 32 28 27 26 25 30 36 35 28 30 32 32 33 33 30 29 27 27 24 19 25 32 36 37 44 35 29
Wind_Direction_850mb
183 176 176 175 176 175 197 210 240 237 281 295 292 174 236 310 315 274 281 284 288 293 302 306 300 311 313 310 313 309 311 301
172 178 169 164 169 183 190 211 196 244 151 130 142 175 284 301 280 291 303 303 304 305 318 319 318 313 304 309 307 306 306 299
161 163 163 166 163 166 172 176 175 158 145 143 170 232 249 265 297 301 301 303 308 317 310 311 308 306 305 298 305 308 304 306
158 156 156 157 159 161 160 157 154 154 166 171 190 221 277 305 315 317 303 301 306 311 309 307 307 308 304 294 295 306 301 305
146 150 156 156 158 156 155 153 164 173 169 178 187 185 287 297 310 314 309 309 308 306 305 303 304 303 296 291 293 301 304 308
154 151 152 153 156 157 162 169 179 184 191 202 235 350 21 353 338 325 320 316 312 308 305 299 297 297 286 278 280 290 306 312
153 154 156 156 159 170 172 175 181 191 209 218 315 335 334 338 331 329 321 316 312 308 302 298 291 284 273 266 270 301 303 306
165 169 169 169 169 174 172 175 182 168 173 354 342 337 334 343 337 336 333 327 323 318 312 302 286 269 247 257 275 309 297 293
176 176 180 177 177 172 173 167 160 151 85 358 350 349 352 355 346 343 336 329 326 323 319 305 264 248 245 285 308 302 290 290
182 186 184 178 171 172 164 153 155 129 51 334 336 353 358 355 351 341 334 332 329 325 323 301 247 261 298 303 303 291 286 298
189 184 177 172 166 170 165 157 147 323 316 301 348 360 355 345 337 337 336 332 331 327 311 280 266 302 300 299 290 285 292 301
190 183 176 170 171 171 167 171 228 301 237 312 340 345 338 332 337 337 334 332 325 318 301 276 279 293 294 286 278 284 287 301
190 184 177 175 177 176 178 180 189 232 259 308 330 325 324 326 333 334 331 327 319 308 296 288 289 293 289 272 277 288 289 298
187 185 181 179 180 179 189 185 217 226 279 307 308 314 317 320 328 328 325 321 314 307 301 294 295 287 279 277 287 291 287 296
190 188 185 185 186 188 188 218 208 253 283 296 298 309 308 314 321 323 322 317 311 309 301 296 296 289 279 282 291 296 294 303
195 191 190 192 191 191 201 198 235 256 284 294 287 305 304 302 311 318 321 315 307 299 302 302 293 289 290 295 301 295 303 306
199 197 198 198 197 197 195 220 236 266 288 296 300 297 296 298 306 314 317 309 302 299 292 288 293 281 303 302 295 309 307 311
204 204 204 202 199 207 209 218 245 271 286 300 303 298 293 295 299 307 313 309 303 300 292 284 285 274 310 296 309 312 313 310
210 209 209 210 201 211 206 219 252 271 289 296 298 290 288 295 295 298 307 305 302 298 297 284 265 270 293 299 309 316 315 314